Flag for U.S.A. Weather past 2 weeks in Fresno, California, U.S.A.

Now
68 °F

Scattered clouds.


Feels Like: 68 °F
Forecast: 47 / 74 °F
Wind: 3 mph from North

Location: Fresno Air Terminal


UV Index: 5 (Moderate)

Visibility: 10 mi


Pressure: 30.06 "Hg

Humidity: 30%

Dew point: 35 °F

Location of FresnoLocation

Historic Weather in Fresno

°F

Fresno temperature yesterday

Maximum temperature yesterday: 71 °F (at 3:53 PM)
Minimum temperature yesterday: 56 °F (at 11:53 PM)
Average temperature yesterday: 63 °F

Past Weeks' High & Low Weather Summary

 TemperatureHumidityPressure
High91 °F (Apr 8, 3:53 PM)83% (Apr 13, 5:53 AM)30.11 "Hg (Apr 13, 5:53 AM)
Low50 °F (Apr 23, 5:53 AM)7% (Apr 19, 5:53 PM)29.73 "Hg (Apr 17, 6:53 PM)
Average71 °F42%29.92 "Hg
* Reported Apr 8 11:53 AM — Apr 23 11:53 AM, Fresno, Weather by CustomWeather, © 2014

Note: Actual official high and low records may vary slightly from our data, if they occured in-between our weather recording intervals... More about our weather records

Advertising

Historic Weather Conditions — Data for Previous 24 hours

 ConditionsComfort  
Time TempWeatherWind HumidityBarometerVisibility
11:53 AM
Apr 23
65 °FScattered clouds.8 mph36%30.09 "Hg10 mi
10:53 AM62 °FScattered clouds.12 mph41%30.09 "Hg10 mi
9:53 AM59 °FScattered clouds.9 mph46%30.09 "Hg10 mi
8:53 AM56 °FPassing clouds.10 mph53%30.08 "Hg10 mi
7:53 AM52 °FPassing clouds.8 mph61%30.09 "Hg10 mi
6:53 AM50 °FMostly cloudy.10 mph66%30.07 "Hg10 mi
5:53 AM50 °FPassing clouds.10 mph63%30.06 "Hg10 mi
4:53 AM51 °FClear.13 mph61%30.05 "Hg10 mi
3:53 AM52 °FClear.13 mph59%30.03 "Hg10 mi
2:53 AM53 °FPassing clouds.13 mph59%30.03 "Hg10 mi
1:53 AM53 °FClear.16 mph56%30.03 "Hg10 mi
12:53 AM55 °FClear.18 mph53%30.03 "Hg10 mi
11:53 PM
Apr 22
56 °FClear.18 mph51%30.03 "Hg10 mi
10:53 PM58 °FClear.18 mph47%30.01 "Hg10 mi
9:53 PM61 °FPassing clouds.17 mph36%30.01 "Hg10 mi
8:53 PM63 °FPassing clouds.15 mph27%30.00 "Hg10 mi
7:53 PM65 °FScattered clouds.15 mph26%29.98 "Hg10 mi
6:53 PM67 °FScattered clouds.15 mph23%29.97 "Hg10 mi
5:53 PM70 °FScattered clouds.22 mph19%29.98 "Hg10 mi
4:53 PM71 °FScattered clouds.22 mph16%29.98 "Hg10 mi
3:53 PM71 °FPassing clouds.17 mph17%29.99 "Hg10 mi
2:53 PM70 °FPassing clouds.16 mph23%30.01 "Hg10 mi
1:53 PM70 °FPassing clouds.17 mph29%30.03 "Hg10 mi
Weather by CustomWeather, © 2014

See weather overview